Estherville, IA

7:41 AM CDT on September 25, 2017 (GMT -0500)
Estherville Municipal

Weather History for KEST - May, 2014

Change the Weather History Date:

Saturday, May 31, 2014

  Actual Average Record
Temperature  
Mean Temperature 77 °F 64 °F  
Max Temperature 88 °F 75 °F 90 °F (1988)
Min Temperature 66 °F 52 °F 40 °F (1964)
Degree Days  
Heating Degree Days 0 4  
Month to date heating degree days 260 238  
Since 1 July heating degree days 8543 7698  
Cooling Degree Days 12 2  
Month to date cooling degree days 49 34  
Year to date cooling degree days 49 36  
Growing Degree Days 26 (Base 50)    
Moisture  
Dew Point 66 °F    
Average Humidity 74    
Maximum Humidity 100    
Minimum Humidity 48    
Precipitation  
Precipitation 0.21 in 0.16 in 2.00 in (1959)
Month to date precipitation 1.85 3.84  
Sea Level Pressure  
Sea Level Pressure 29.95 in    
Wind  
Wind Speed 13 mph (South)    
Max Wind Speed 28 mph    
Max Gust Speed 37 mph    
Visibility 10 miles    
Events Rain , Thunderstorm    
T = Trace of Precipitation, MM = Missing Value Source: NWS Daily Summary

Daily Weather History Graph

Daily Weather History Graph

Search for Another Location

Airport or City:

Trip Planner

Search our weather history database for the weather conditions in past years. The results will help you decide how hot, cold, wet, or windy it might be!

Date:

Astronomy

May. 31, 2014 Rise Set
Actual Time 5:41 AM CDT 8:52 PM CDT
Civil Twilight 5:07 AM CDT 9:26 PM CDT
Nautical Twilight 4:22 AM CDT 10:11 PM CDT
Astronomical Twilight 3:28 AM CDT 11:06 PM CDT
Moon 8:22 AM CDT (5/31) 11:07 PM CDT (5/31)
Length of Visible Light 16h 19m
Length of Day
15h 10m
Waxing Crescent, 8% of the Moon is Illuminated
May 31
Waxing Crescent
Jun 5
First Quarter
Jun 12
Full
Jun 19
Last Quarter
Jun 27
New

Hourly Weather History & Observations

Time (CDT) Temp. Heat Index Dew Point Humidity Pressure Visibility Wind Dir Wind Speed Gust Speed Precip Events Conditions
12:52 AM 71.1 °F - 64.0 °F 78% 30.04 in 10.0 mi South 6.9 mph - N/A   Clear
1:52 AM 72.0 °F - 64.9 °F 78% 30.03 in 10.0 mi South 8.1 mph - N/A   Clear
2:52 AM 71.1 °F - 64.9 °F 81% 30.03 in 10.0 mi SSE 10.4 mph - N/A   Clear
4:52 AM 69.1 °F - 66.9 °F 93% 30.03 in 10.0 mi South 9.2 mph - N/A   Scattered Clouds
5:52 AM 68.0 °F - 66.9 °F 96% 30.04 in 7.0 mi South 6.9 mph - N/A   Scattered Clouds
7:52 AM 71.1 °F - 66.9 °F 87% 30.04 in 9.0 mi South 12.7 mph - N/A   Clear
8:52 AM 75.0 °F - 68.0 °F 79% 30.04 in 10.0 mi South 11.5 mph - N/A   Clear
10:52 AM 79.0 °F - 68.0 °F 69% 30.02 in 10.0 mi South 15.0 mph - N/A   Partly Cloudy
11:52 AM 81.0 °F 83.0 °F 66.0 °F 60% 29.99 in 10.0 mi South 13.8 mph 18.4 mph N/A Thunderstorm Scattered Clouds
12:10 PM 81.0 °F 83.0 °F 66.0 °F 60% 30.02 in 10.0 mi South 16.1 mph 24.2 mph N/A   Scattered Clouds
12:42 PM 77.0 °F - 68.0 °F 74% 30.02 in 10.0 mi South 21.9 mph - N/A Thunderstorm Scattered Clouds
12:52 PM 77.0 °F - 66.9 °F 71% 29.99 in 10.0 mi South 19.6 mph - N/A   Partly Cloudy
1:52 PM 82.0 °F 84.1 °F 66.0 °F 58% 29.96 in 10.0 mi South 17.3 mph 24.2 mph N/A   Clear
2:52 PM 84.9 °F 86.6 °F 64.9 °F 51% 29.93 in 10.0 mi South 20.7 mph 27.6 mph N/A   Clear
3:52 PM 84.9 °F 87.6 °F 66.9 °F 55% 29.90 in 10.0 mi South 11.5 mph - N/A   Mostly Cloudy
4:52 PM 84.9 °F 85.4 °F 62.1 °F 46% 29.88 in 10.0 mi South 21.9 mph 33.4 mph N/A   Partly Cloudy
5:52 PM 84.9 °F 85.9 °F 63.0 °F 48% 29.87 in 10.0 mi South 17.3 mph 25.3 mph N/A   Partly Cloudy
6:52 PM 84.0 °F 84.5 °F 62.1 °F 47% 29.86 in 10.0 mi South 20.7 mph 31.1 mph N/A   Partly Cloudy
7:52 PM 82.0 °F 83.0 °F 62.1 °F 51% 29.86 in 10.0 mi South 17.3 mph 25.3 mph N/A   Clear
8:52 PM 78.1 °F - 64.9 °F 64% 29.86 in 10.0 mi South 11.5 mph - N/A   Mostly Cloudy
9:04 PM 73.0 °F - 64.9 °F 76% 29.91 in 9.0 mi SW 12.7 mph 36.8 mph 0.00 in Rain , Thunderstorm Light Rain
9:28 PM 70.0 °F - 66.9 °F 90% 29.90 in 10.0 mi WSW 4.6 mph - 0.03 in Thunderstorm Thunderstorm
9:40 PM 72.0 °F - 66.9 °F 84% 29.90 in 10.0 mi WNW 11.5 mph - 0.03 in   Overcast
9:52 PM 72.0 °F - 66.9 °F 84% 29.88 in 10.0 mi WSW 8.1 mph - 0.03 in   Mostly Cloudy
10:52 PM 69.1 °F - 69.1 °F 100% 29.90 in 10.0 mi East 3.5 mph - 0.01 in   Mostly Cloudy
11:32 PM 70.0 °F - 69.1 °F 97% 29.92 in 10.0 mi North - - N/A Thunderstorm Overcast
11:47 PM 71.6 °F - 68.0 °F 88% 29.92 in 10.0 mi Variable 4.6 mph - 0.00 in Rain Light Rain
11:52 PM 71.1 °F - 68.0 °F 90% 29.89 in 5.0 mi Calm Calm - 0.03 in Rain , Thunderstorm Heavy Rain